Redmond, OR

9:17 AM PST on December 04, 2016 (GMT -0800)
Roberts Field Airport

Weather History for KRDM - September, 2012

Change the Weather History Date:

Thursday, September 6, 2012

  Actual Average Record
Temperature  
Mean Temperature 60 °F 60 °F  
Max Temperature 81 °F 79 °F 98 °F (1998)
Min Temperature 39 °F 41 °F 26 °F (2010)
Degree Days  
Heating Degree Days 5 6  
Month to date heating degree days 33 32  
Since 1 July heating degree days 133 181  
Cooling Degree Days 0 1  
Month to date cooling degree days 0 6  
Year to date cooling degree days 201 212  
Growing Degree Days 10 (Base 50)    
Moisture  
Dew Point 38 °F    
Average Humidity 50    
Maximum Humidity 79    
Minimum Humidity 21    
Precipitation  
Precipitation 0.00 in 0.01 in 0.04 in (1971)
Month to date precipitation 0.00 0.08  
Year to date precipitation 7.65 5.81  
Sea Level Pressure  
Sea Level Pressure 30.01 in    
Wind  
Wind Speed 7 mph (NW)    
Max Wind Speed 21 mph    
Max Gust Speed 24 mph    
Visibility 10 miles    
Events      
T = Trace of Precipitation, MM = Missing Value Source: NWS Daily Summary

Daily Weather History Graph

Daily Weather History Graph

Search for Another Location

Airport or City:

Trip Planner

Search our weather history database for the weather conditions in past years. The results will help you decide how hot, cold, wet, or windy it might be!

Date:

Astronomy

Sep. 06, 2012 Rise Set
Actual Time 6:33 AM PDT 7:30 PM PDT
Civil Twilight 6:04 AM PDT 8:00 PM PDT
Nautical Twilight 5:29 AM PDT 8:35 PM PDT
Astronomical Twilight 4:52 AM PDT 9:11 PM PDT
Moon 10:29 PM PDT (9/6) 12:53 PM PDT (9/6)
Length of Visible Light 13h 55m
Length of Day
12h 56m
Waning Gibbous, 66% of the Moon is Illuminated
Sep 6
Waning Gibbous
Sep 8
Last Quarter
Sep 15
New
Sep 22
First Quarter
Sep 29
Full

Hourly Weather History & Observations

Time (PDT) Temp. Windchill Dew Point Humidity Pressure Visibility Wind Dir Wind Speed Gust Speed Precip Events Conditions
12:56 AM 54.0 °F - 39.9 °F 59% 29.94 in 10.0 mi Calm Calm - N/A   Clear
1:56 AM 50.0 °F - 37.9 °F 63% 29.95 in 10.0 mi South 3.5 mph - N/A   Clear
2:56 AM 44.1 °F - 36.0 °F 73% 29.95 in 10.0 mi Calm Calm - N/A   Clear
3:56 AM 45.0 °F 41.2 °F 37.0 °F 74% 29.94 in 10.0 mi South 6.9 mph - N/A   Clear
4:56 AM 46.9 °F - 37.0 °F 68% 29.95 in 10.0 mi South 8.1 mph - N/A   Clear
5:56 AM 45.0 °F - 36.0 °F 71% 29.97 in 10.0 mi Calm Calm - N/A   Clear
6:56 AM 39.9 °F - 34.0 °F 79% 30.01 in 10.0 mi Calm Calm - N/A   Clear
7:56 AM 53.1 °F - 37.9 °F 57% 30.02 in 10.0 mi NNE 3.5 mph - N/A   Clear
8:56 AM 59.0 °F - 39.9 °F 49% 30.02 in 10.0 mi Calm Calm - N/A   Clear
9:56 AM 62.1 °F - 39.9 °F 44% 30.04 in 10.0 mi NW 8.1 mph - N/A   Clear
10:56 AM 66.9 °F - 41.0 °F 39% 30.03 in 10.0 mi NW 8.1 mph - N/A   Clear
11:56 AM 71.1 °F - 41.0 °F 34% 30.04 in 10.0 mi NNW 8.1 mph - N/A   Clear
12:56 PM 73.9 °F - 39.9 °F 29% 30.02 in 10.0 mi Variable 3.5 mph - N/A   Clear
1:56 PM 77.0 °F - 39.9 °F 26% 30.01 in 10.0 mi Variable 4.6 mph - N/A   Clear
2:56 PM 79.0 °F - 41.0 °F 26% 30.00 in 10.0 mi North 12.7 mph 18.4 mph N/A   Clear
3:56 PM 80.1 °F - 39.0 °F 23% 29.99 in 10.0 mi North 13.8 mph - N/A   Clear
4:56 PM 80.1 °F - 37.9 °F 22% 29.98 in 10.0 mi NNW 13.8 mph - N/A   Clear
5:56 PM 78.1 °F - 37.9 °F 24% 29.99 in 10.0 mi NNW 15.0 mph - N/A   Clear
6:56 PM 73.0 °F - 37.9 °F 28% 30.03 in 10.0 mi NNW 13.8 mph - N/A   Clear
7:56 PM 68.0 °F - 37.9 °F 33% 30.03 in 10.0 mi NNW 11.5 mph - N/A   Clear
9:56 PM 64.0 °F - 37.9 °F 38% 30.07 in 10.0 mi NW 11.5 mph - N/A   Clear
10:56 PM 62.6 °F - 37.4 °F 39% 30.14 in 10.0 mi WNW 10.4 mph - N/A   Clear
11:56 PM 60.1 °F - 37.9 °F 44% 30.09 in 10.0 mi NW 6.9 mph - N/A   Clear